User: anonymous   Login
Location: Bremen
(53.0793°N, 8.8017°E)
Time: 20:20:08
(UTC+02:00)
Language:

Explorer 7 - Orbit

View from above orbital plane
View from above orbital plane
View from above satellite
View from above satellite

Ground track
Ground track

The orbit data is extracted from the following two-line orbital elements,

1 00022U 59009A   24113.86737733  .00011798  00000-0  70309-3 0  9990
2 00022  50.2798 317.2400 0115397 253.5322 105.2923 15.06084757681068
Epoch (UTC): 22 April 2024 20:49:01
Eccentricity: 0.0115397
inclination: 50.2798°
perigee height: 468 km
apogee height: 628 km
right ascension of ascending node: 317.2400°
argument of perigee: 253.5322°
revolutions per day: 15.06084757
mean anomaly at epoch: 105.2923°
orbit number at epoch: 68106

The dashed part of the orbit path shows where the satellite is in the earth's shadow,  

DLR